Simultaneous Nadir Overpasses (SNOs) Predictions

Prediction of SNOs between GOES-17 and TERRA Satellite Orbit:

Table of predicted SNOs for the next 14.0 days since TLE Epoch: 2/19/2022
Index Date Time (GOES-17) GOES-17 Lat,Lon TERRA Lat,Lon Distance(km) Time Diff (sec)
1 02/20/2022 07:35:15 -0.04,-137.17 -0.15,-137.82 73.39 80
2 02/22/2022 07:20:20 -0.03,-137.14 0.45,-134.86 259.10 80
3 02/22/2022 19:41:34 0.03,-137.13 0.62,-140.02 327.88 80
4 02/24/2022 19:29:18 0.03,-137.08 0.01,-137.05 3.47 80
5 02/26/2022 19:19:42 0.03,-137.02 -0.60,-134.09 333.71 80
6 02/27/2022 07:38:25 -0.03,-137.00 -0.51,-139.28 258.85 80
7 03/01/2022 07:28:49 -0.02,-136.94 0.11,-136.32 71.04 80
8 03/03/2022 07:16:33 -0.02,-136.88 0.74,-133.35 401.11 80
9 03/03/2022 19:35:07 0.01,-136.87 0.39,-138.51 186.54 80
